User: anonymous   Login
Location: Unspecified
(0.0000°N, 0.0000°E)
Time: 00:53:55
(UTC+00:00)
Language:

TIANHUI 1-04 - Orbit

View from above orbital plane
View from above orbital plane
View from above satellite
View from above satellite

Ground track
Ground track

The orbit is defined by the following mean orbital elements,

1 49049U          26145.60233953 +.00000000 +00000-0 +21318-3 0 00006
2 49049  97.2777 214.3850 0000367 100.0714 260.0565 15.23484630    09
Epoch (UTC): 25 May 2026 14:27:22
Eccentricity: 0.0000367
inclination: 97.2777°
perigee height: 495 km
apogee height: 496 km
right ascension of ascending node: 214.3850°
argument of perigee: 100.0714°
revolutions per day: 15.23484630
mean anomaly at epoch: 260.0565°

The dashed part of the orbit path shows where the satellite is in the earth's shadow,  

DLR